[[{"header":{"parameterUnit":"m.s-1","parameterCategory":2,"la1":30.2991,"la2":30.254,"lo1":-89.0895,"lo2":-89.0444,"dy":0.0017,"dx":0.0017,"nx":28,"ny":28,"refTime":"2023-08-08T03:00:00:Z","depth":"0","parameterNumber":2,"parameterNumberName":"U-component_of_CURRENTS"},"data":[0,0,0,0,0,0,0,0,0,0,0,0,0,0,0,0,0,0,0,0,0,0,0,0,0,0,0,0,0,0,0,0,0,0,0,0,0,0,0,0,0,0,0,0,0,0,0,0,0,0,0,0,0,0,0,0,0,0,0.4447,0.4446,0,0.4415,0.4416,0.4416,0.4381,0.438,0.4378,0.4377,0.4423,0.4425,0.4427,0,0,0,0,0,0,0,0,0,0,0,0,0,0.458,0.4578,0.4447,0.4445,0.4444,0.4415,0.4416,0.4416,0.4381,0.438,0.4378,0.4377,0.4422,0.4425,0.4428,0,0,0,0,0,0,0,0,0,0,0,0,0,0.4541,0.4577,0.4447,0.4417,0.4413,0.4415,0.4416,0.4416,0.4382,0.438,0.4378,0.4376,0.4421,0.4424,0.4428,0.449,0,0,0.4439,0.4441,0,0,0,0,0,0,0,0,0.4543,0.4537,0.4423,0.4419,0.4415,0.4392,0.4479,0.4442,0.4382,0.4403,0.4377,0.4375,0.4415,0.4419,0.4429,0.4492,0.4494,0.4439,0.4442,0.4443,0.4444,0,0,0,0,0,0,0,0.4546,0.4539,0.4443,0.4421,0.4416,0.444,0.4433,0.4473,0.4429,0.4401,0.4396,0.4379,0.4415,0.4426,0.443,0.4495,0.4439,0.4443,0.4445,0.4446,0.4634,0.4636,0,0,0,0,0,0,0.4528,0.4541,0.4444,0.4441,0.4466,0.4438,0.443,0.4409,0.4426,0.4424,0.4381,0.4378,0.442,0.4426,0.4432,0.449,0.4443,0.4447,0.4449,0.4631,0.4634,0.4637,0,0,0,0,0,0,0.4532,0.452,0.4445,0.4484,0.4475,0.4436,0.4414,0.4409,0.441,0.4409,0.4409,0.4384,0.4419,0.4426,0.4474,0.4492,0.4448,0.4452,0.4627,0.4632,0.4636,0.4617,0,0,0,0,0,0,0.4536,0.4522,0.4526,0.4482,0.4471,0.4456,0.4415,0.4409,0.4398,0.4394,0.4412,0.4414,0.4418,0.4469,0.4478,0.4496,0.4454,0.4624,0.4629,0.4634,0.4614,0.462,0.4625,0,0,0,0,0,0.4541,0.4549,0.4526,0.4515,0.4469,0.4456,0.4456,0.4428,0.44,0.4419,0.4427,0.4413,0.4508,0.4474,0.4484,0.4503,0.4621,0.4628,0.4634,0.4612,0.4619,0.4625,0,0,0,0,0,0,0.462,0.4544,0.4518,0.4506,0.4484,0.4447,0.4457,0.4433,0.4454,0.4447,0.4446,0.4452,0.4505,0.4522,0.4484,0.458,0.4565,0.4574,0.4545,0.4552,0.4558,0.4566,0.4457,0,0,0,0,0,0.4634,0.4614,0.4556,0.4551,0.4536,0.4498,0.4494,0.4469,0.4464,0.4469,0.4471,0.4497,0.4545,0.4558,0.4603,0.4651,0.4712,0.4677,0.4682,0.4686,0.4706,0.4822,0.4839,0.4658,0.4658,0.4658,0,0,0.466,0.4619,0.4607,0.4567,0.4544,0.452,0.4493,0.4482,0.447,0.4476,0.4481,0.4521,0.4568,0.462,0.4645,0.4627,0.4773,0.4694,0.4696,0.4715,0.483,0.4848,0.4863,0.4662,0.4661,0.4661,0,0,0.4688,0.4665,0.4647,0.4623,0.458,0.4558,0.4551,0.4511,0.4508,0.4524,0.4534,0.4589,0.4628,0.4672,0.4699,0.4773,0.4807,0.4782,0.4801,0.4912,0.4928,0.4942,0.5043,0.5067,0.4773,0.4773,0.4773,0,0.4723,0.4678,0.465,0.462,0.4593,0.4567,0.454,0.4545,0.4529,0.4536,0.4526,0.4621,0.4659,0.4736,0.4765,0.4783,0.485,0.4756,0.4917,0.4932,0.4947,0.5048,0.5074,0.4773,0.4773,0.4773,0.4773,0,0.472,0.4685,0.4678,0.4616,0.4603,0.4585,0.4554,0.4561,0.4547,0.4542,0.4609,0.4675,0.473,0.4757,0.4783,0.4905,0.4921,0.4913,0.4887,0.4963,0.5066,0.5093,0.4772,0.4773,0.4773,0.4773,0,0,0.4774,0.4688,0.4682,0.4635,0.4591,0.4568,0.4572,0.4564,0.4564,0.4592,0.462,0.4724,0.4757,0.4798,0.4845,0.4945,0.5112,0.4974,0.498,0.5054,0.5365,0.5287,0.5309,0.5127,0.5132,0.5135,0.5394,0,0.4772,0.471,0.4673,0.4614,0.4569,0.4549,0.455,0.4548,0.4564,0.4597,0.4682,0.4738,0.477,0.4812,0.4921,0.5075,0.5185,0.5044,0.5301,0.5309,0.5212,0.5338,0.5112,0.5316,0.542,0.5425,0.5428,0,0.4767,0.4716,0.466,0.4575,0.4557,0.4534,0.4521,0.452,0.4576,0.4598,0.4673,0.4731,0.4894,0.4905,0.52,0.5109,0.5249,0.5358,0.537,0.5324,0.5281,0.5262,0.5362,0.5185,0.5471,0.5467,0.5464,0,0.4789,0.47,0.4652,0.4622,0.4545,0.4529,0.4506,0.4526,0.4527,0.4614,0.4641,0.4805,0.491,0.5111,0.5316,0.5287,0.5632,0.5612,0.5672,0.5668,0.5543,0.5518,0.5483,0.5834,0.5833,0.5833,0.5832,0,0.4786,0.4737,0.4654,0.462,0.456,0.4521,0.4492,0.4501,0.4538,0.4554,0.465,0.4722,0.4974,0.5165,0.5352,0.5596,0.5666,0.572,0.5744,0.5529,0.5502,0.5394,0.5256,0.5842,0.584,0.5838,0.5837,0,0.4802,0.4755,0.4681,0.4597,0.4559,0.4525,0.445,0.4439,0.4487,0.4525,0.4559,0.4723,0.4981,0.5202,0.5549,0.5635,0.5706,0.5929,0.5649,0.5636,0.5499,0.5367,0.5276,0.5145,0.6066,0.6066,0.6065,0,0.479,0.4759,0.4661,0.4608,0.4561,0.4489,0.4435,0.4423,0.4415,0.4518,0.4548,0.4781,0.4924,0.5359,0.5593,0.5895,0.5702,0.5807,0.571,0.5489,0.5364,0.5178,0.5059,0.5555,0.5551,0.5547,0.5544,0,0.4758,0.4747,0.469,0.459,0.4512,0.4412,0.4346,0.4327,0.4339,0.4389,0.45,0.4627,0.5008,0.5196,0.5528,0.5689,0.5466,0.5743,0.5596,0.5035,0.475,0.4632,0.5382,0.5513,0.5516,0.5518,0.552,0.5521,0.4732,0.4702,0.4637,0.4533,0.4441,0.4328,0.4229,0.4208,0.4189,0.4212,0.441,0.4509,0.4753,0.5211,0.5341,0.5333,0.5341,0.5216,0.5109,0.4972,0.471,0.5382,0.547,0.5473,0.5476,0.5478,0.548,0,0.4655,0.4631,0.4559,0.4413,0.4283,0.4262,0.4141,0.4043,0.3995,0.4084,0.418,0.4279,0.4442,0.4636,0.4767,0.4681,0.4584,0.4558,0.4226,0.4174,0.4868,0.4705,0.4527,0.4528,0.4528,0.4528,0.4528,0.4528,0.4609,0.4535,0.4499,0.4268,0.4168,0.3965,0.388,0.3791,0.3784,0.3704,0.3683,0.3785,0.3959,0.4103,0.4061,0.4025,0.374,0.3616,0.3636,0.4075,0.4127,0.4176,0.3996,0.3672,0.367,0.2842,0.2834,0.2828]},{"header":{"parameterUnit":"m.s-1","parameterCategory":2,"la1":30.2991,"la2":30.254,"lo1":-89.0895,"lo2":-89.0444,"dy":0.0017,"dx":0.0017,"nx":28,"ny":28,"refTime":"2023-08-08T03:00:00:Z","depth":"0","parameterNumber":3,"parameterNumberName":"V-component_of_CURRENTS"},"data":[0,0,0,0,0,0,0,0,0,0,0,0,0,0,0,0,0,0,0,0,0,0,0,0,0,0,0,0,0,0,0,0,0,0,0,0,0,0,0,0,0,0,0,0,0,0,0,0,0,0,0,0,0,0,0,0,0,0,0.0278,0.0278,0,0.0326,0.0327,0.0327,0.0306,0.0305,0.0304,0.0303,0.0246,0.0245,0.0245,0,0,0,0,0,0,0,0,0,0,0,0,0,0.0188,0.019,0.0278,0.0278,0.0279,0.0326,0.0327,0.0327,0.0307,0.0305,0.0304,0.0302,0.0246,0.0245,0.0245,0,0,0,0,0,0,0,0,0,0,0,0,0,0.0231,0.019,0.0277,0.0274,0.0275,0.0326,0.0327,0.0327,0.0307,0.0305,0.0303,0.0302,0.0246,0.0246,0.0245,0.0275,0,0,0.0243,0.0243,0,0,0,0,0,0,0,0,0.0228,0.0234,0.0274,0.0275,0.0275,0.0309,0.0274,0.0305,0.0307,0.0294,0.0303,0.0301,0.0258,0.0257,0.0271,0.0273,0.027,0.0243,0.0242,0.0242,0.0242,0,0,0,0,0,0,0,0.0225,0.0232,0.0296,0.0275,0.0276,0.0278,0.0282,0.0281,0.0283,0.0295,0.0294,0.03,0.0258,0.0272,0.0269,0.0269,0.0243,0.0242,0.0242,0.0242,0.0304,0.0306,0,0,0,0,0,0,0.0221,0.0229,0.0295,0.0298,0.0247,0.0281,0.0285,0.0299,0.0286,0.0283,0.0302,0.0299,0.0274,0.027,0.0267,0.0316,0.0242,0.0241,0.0241,0.0302,0.0305,0.0307,0,0,0,0,0,0,0.0219,0.0227,0.0293,0.0264,0.0273,0.0284,0.03,0.0301,0.0315,0.0292,0.0286,0.0314,0.0272,0.0268,0.0285,0.0313,0.0241,0.0241,0.03,0.0303,0.0306,0.0405,0,0,0,0,0,0,0.0217,0.0226,0.0236,0.0264,0.0274,0.0332,0.0302,0.0303,0.0322,0.0319,0.0301,0.0294,0.027,0.0286,0.0284,0.031,0.024,0.0297,0.0301,0.0305,0.0399,0.0411,0.0422,0,0,0,0,0,0.0213,0.0233,0.0237,0.0245,0.0288,0.0334,0.034,0.0341,0.0324,0.0344,0.0337,0.0295,0.0309,0.0288,0.0285,0.0312,0.0295,0.03,0.0304,0.0394,0.0409,0.0421,0,0,0,0,0,0,0.0193,0.0234,0.0238,0.0267,0.0302,0.033,0.0346,0.035,0.0364,0.0355,0.0326,0.0321,0.0347,0.0322,0.0299,0.0343,0.0293,0.0297,0.0363,0.0376,0.0387,0.0395,0.0239,0,0,0,0,0,0.0197,0.0223,0.0263,0.0286,0.0306,0.033,0.0347,0.0354,0.037,0.0374,0.0366,0.0358,0.0367,0.0364,0.0366,0.0391,0.0358,0.0405,0.0417,0.0426,0.0432,0.0424,0.0435,0.0322,0.0322,0.0322,0,0,0.0191,0.0219,0.023,0.0284,0.0308,0.0356,0.0336,0.0372,0.0408,0.0365,0.0404,0.0398,0.0385,0.0418,0.0426,0.0396,0.0441,0.0432,0.044,0.0441,0.043,0.0441,0.045,0.0325,0.0325,0.0324,0,0,0.02,0.0225,0.0253,0.0298,0.0347,0.0372,0.0386,0.0427,0.044,0.0485,0.0466,0.0484,0.0491,0.0497,0.0497,0.0572,0.0505,0.0565,0.0622,0.0615,0.0623,0.0631,0.06,0.0604,0.0565,0.0565,0.0565,0,0.019,0.0243,0.0268,0.0321,0.0366,0.0383,0.0439,0.0465,0.0505,0.0528,0.0505,0.0548,0.0533,0.0581,0.0607,0.0597,0.0569,0.057,0.0628,0.0635,0.064,0.0607,0.061,0.057,0.057,0.0569,0.0569,0,0.0227,0.0283,0.031,0.0385,0.0433,0.0487,0.0537,0.0575,0.059,0.0613,0.0665,0.066,0.0681,0.0684,0.0667,0.0711,0.067,0.0646,0.0591,0.0658,0.0618,0.0619,0.0578,0.0576,0.0575,0.0573,0,0,0.0186,0.031,0.0323,0.0389,0.0481,0.053,0.0597,0.0672,0.0721,0.0742,0.0803,0.0824,0.0812,0.0813,0.0796,0.0791,0.0808,0.0738,0.0735,0.0702,0.0772,0.0723,0.0718,0.0788,0.0789,0.079,0.0726,0,0.0215,0.0322,0.038,0.05,0.0572,0.0635,0.0704,0.0768,0.0808,0.0867,0.0867,0.0911,0.0863,0.088,0.0871,0.0842,0.0816,0.0826,0.0717,0.0713,0.0658,0.072,0.0707,0.0648,0.0726,0.0727,0.0727,0,0.0246,0.0323,0.0431,0.0591,0.0627,0.0693,0.082,0.0887,0.0962,0.0991,0.1023,0.1019,0.1044,0.098,0.0939,0.0946,0.0862,0.0816,0.0812,0.0732,0.0667,0.0595,0.0646,0.0406,0.0727,0.0727,0.0727,0,0.0223,0.0375,0.0463,0.0518,0.0674,0.0738,0.082,0.0917,0.0996,0.1067,0.1123,0.1127,0.1154,0.1069,0.0979,0.0958,0.0911,0.0866,0.0732,0.0726,0.0676,0.0665,0.0479,0.0804,0.0804,0.0804,0.0804,0,0.0256,0.034,0.0462,0.052,0.0646,0.0749,0.088,0.0955,0.1071,0.1188,0.1182,0.127,0.1178,0.1145,0.102,0.0896,0.0936,0.0753,0.0717,0.071,0.0703,0.046,0.0364,0.0802,0.0802,0.0803,0.0803,0,0.0244,0.0316,0.0433,0.0584,0.0643,0.073,0.0932,0.1037,0.1128,0.1281,0.1312,0.1384,0.137,0.1243,0.1125,0.0964,0.0717,0.076,0.0748,0.0712,0.0357,0.0271,0.0093,0.0027,0.0608,0.0607,0.0606,0,0.0262,0.031,0.0457,0.0536,0.0615,0.0765,0.0891,0.1041,0.1171,0.137,0.146,0.1494,0.1575,0.1376,0.111,0.0872,0.0686,0.0639,0.0595,0.0342,0.0219,0.016,0.0114,0.0562,0.0561,0.056,0.0559,0,0.0302,0.0324,0.0413,0.0554,0.0688,0.0862,0.1054,0.117,0.1373,0.1529,0.1741,0.1823,0.1652,0.1467,0.1106,0.0903,0.0493,0.0605,0.0358,0.0185,0.0097,0.0015,0.0575,0.0548,0.0549,0.055,0.0551,0.0551,0.0325,0.0373,0.0468,0.0604,0.0758,0.0972,0.1148,0.137,0.1617,0.192,0.195,0.2133,0.1761,0.1318,0.1,0.0351,0.0416,0.0148,0.0068,0.0033,-0.0044,0.048,0.0404,0.0404,0.0404,0.0404,0.0404,0,0.0373,0.0426,0.054,0.072,0.0892,0.098,0.128,0.1489,0.1816,0.2078,0.2291,0.2187,0.1725,0.1186,0.0339,-0.0115,-0.0243,-0.0363,-0.0464,-0.0479,-0.0014,-0.0033,-0.0225,-0.0224,-0.0224,-0.0224,-0.0224,-0.0223,0.0412,0.0492,0.0535,0.0799,0.0954,0.1248,0.1439,0.1746,0.1992,0.2318,0.2436,0.249,0.2014,0.057,-0.0457,-0.0675,-0.0928,-0.0982,-0.1095,-0.0826,-0.0786,-0.0747,-0.0792,-0.114,-0.1141,-0.1517,-0.1521,-0.1525]}],[{"header":{"parameterUnit":"m.s-1","parameterCategory":2,"la1":30.2991,"la2":30.254,"lo1":-89.0895,"lo2":-89.0444,"dy":0.0017,"dx":0.0017,"nx":28,"ny":28,"refTime":"2023-08-08T03:00:00:Z","depth":"2","parameterNumber":2,"parameterNumberName":"U-component_of_CURRENTS"},"data":[0,0,0,0,0,0,0,0,0,0,0,0,0,0,0,0,0,0,0,0,0,0,0,0,0,0,0,0,0,0,0,0,0,0,0,0,0,0,0,0,0,0,0,0,0,0,0,0,0,0,0,0,0,0,0,0,0,0,0.1496,0.1498,0,0.1612,0.1613,0.1614,0.1697,0.1698,0.1699,0.17,0.1886,0.189,0.1894,0,0,0,0,0,0,0,0,0,0,0,0,0,0.1297,0.13,0.1496,0.1498,0.15,0.1612,0.1613,0.1614,0.1697,0.1698,0.17,0.1701,0.1885,0.1889,0.1894,0,0,0,0,0,0,0,0,0,0,0,0,0,0.1389,0.1301,0.1496,0.1559,0.1566,0.1612,0.1613,0.1614,0.1696,0.1698,0.17,0.1702,0.1883,0.1889,0.1895,0.1893,0,0,0.1912,0.1915,0,0,0,0,0,0,0,0,0.1384,0.1396,0.1548,0.1555,0.1563,0.1647,0.1611,0.1713,0.1696,0.1641,0.1701,0.1703,0.1815,0.1827,0.1835,0.1902,0.191,0.1913,0.1916,0.1918,0.192,0,0,0,0,0,0,0,0.1378,0.1391,0.1536,0.155,0.1559,0.1566,0.158,0.163,0.1713,0.1646,0.1653,0.1675,0.1819,0.1829,0.184,0.1912,0.1912,0.1917,0.1921,0.1923,0.2201,0.2205,0,0,0,0,0,0,0.1377,0.1386,0.1532,0.154,0.1483,0.1568,0.1585,0.1613,0.1711,0.1729,0.1674,0.1679,0.1818,0.1833,0.1847,0.2051,0.1918,0.1924,0.1927,0.2197,0.2202,0.2207,0,0,0,0,0,0,0.1372,0.1389,0.1528,0.1469,0.1489,0.1571,0.1602,0.1615,0.1669,0.1733,0.1751,0.172,0.182,0.1839,0.1955,0.2051,0.1926,0.1932,0.2193,0.2199,0.2204,0.233,0,0,0,0,0,0,0.1366,0.1386,0.1404,0.147,0.1492,0.1594,0.1601,0.1616,0.168,0.1689,0.1778,0.1794,0.1823,0.1946,0.196,0.2057,0.1936,0.2188,0.2196,0.2203,0.2321,0.2339,0.2355,0,0,0,0,0,0.1358,0.1398,0.1404,0.1422,0.1515,0.1597,0.1609,0.1667,0.1681,0.1718,0.1792,0.1794,0.2004,0.1954,0.197,0.207,0.2184,0.2193,0.2202,0.2313,0.2336,0.2355,0,0,0,0,0,0,0.1344,0.1412,0.1421,0.1485,0.1546,0.1614,0.1661,0.1685,0.1766,0.1791,0.1834,0.1858,0.199,0.201,0.1953,0.2173,0.2098,0.2111,0.2178,0.2199,0.2216,0.2215,0.1941,0,0,0,0,0,0.1339,0.1388,0.1447,0.1509,0.1537,0.1595,0.1634,0.1678,0.1756,0.1793,0.1857,0.194,0.2029,0.2098,0.2158,0.2277,0.2303,0.2356,0.2373,0.2388,0.24,0.2529,0.2559,0.2236,0.2236,0.2236,0,0,0.136,0.1402,0.1434,0.1508,0.1559,0.1624,0.1626,0.1714,0.1789,0.1801,0.1934,0.199,0.2067,0.2206,0.227,0.2247,0.2495,0.2399,0.2411,0.2415,0.2542,0.2573,0.2601,0.2242,0.2241,0.224,0,0,0.1426,0.1456,0.151,0.1555,0.1637,0.1676,0.1707,0.1792,0.1854,0.1971,0.2012,0.2129,0.2251,0.2342,0.2399,0.2547,0.2564,0.2578,0.2695,0.2821,0.2849,0.2873,0.2948,0.2978,0.2611,0.2611,0.2612,0,0.1436,0.1513,0.1543,0.1602,0.1655,0.1704,0.1778,0.1845,0.1965,0.204,0.2038,0.226,0.232,0.2509,0.2578,0.2589,0.2646,0.2607,0.2844,0.2869,0.2891,0.2962,0.2993,0.2618,0.2618,0.2617,0.2616,0,0.1535,0.1592,0.1639,0.172,0.1779,0.1861,0.1942,0.203,0.21,0.2175,0.2359,0.2443,0.2578,0.2635,0.2662,0.2874,0.2855,0.283,0.2786,0.2932,0.2996,0.3027,0.2629,0.2626,0.2624,0.2622,0,0,0.1554,0.1678,0.1692,0.1744,0.1847,0.1912,0.2046,0.2185,0.2295,0.2413,0.2574,0.2738,0.2775,0.2842,0.2895,0.3031,0.3243,0.3024,0.3027,0.3088,0.3514,0.3276,0.3286,0.3276,0.3282,0.3287,0.3493,0,0.1616,0.174,0.179,0.1921,0.1987,0.2067,0.2185,0.2319,0.2436,0.2599,0.2726,0.2882,0.2857,0.295,0.3077,0.3217,0.3331,0.3188,0.3371,0.3376,0.314,0.3316,0.3009,0.3148,0.3523,0.3528,0.3531,0,0.1676,0.1753,0.1894,0.2021,0.206,0.2157,0.235,0.246,0.2679,0.2774,0.2937,0.3017,0.3248,0.3182,0.347,0.3391,0.3458,0.3537,0.3546,0.3298,0.3195,0.3065,0.3189,0.3582,0.3578,0.3574,0.3571,0,0.1671,0.1812,0.1935,0.1981,0.2144,0.2247,0.2345,0.2542,0.2657,0.2905,0.3014,0.3237,0.3378,0.3528,0.3648,0.3607,0.3929,0.3879,0.3712,0.3695,0.3451,0.3399,0.4053,0.4052,0.4052,0.4051,0.4051,0,0.1697,0.1785,0.1956,0.2022,0.2181,0.228,0.2467,0.2595,0.2793,0.296,0.3102,0.3261,0.3481,0.3655,0.3739,0.3816,0.3993,0.3763,0.3753,0.348,0.3432,0.3806,0.3775,0.4059,0.4057,0.4056,0.4055,0,0.1671,0.1785,0.1928,0.2121,0.2192,0.2313,0.2514,0.2646,0.2813,0.3037,0.3125,0.3363,0.3588,0.3724,0.399,0.3904,0.402,0.3976,0.3604,0.3542,0.3681,0.3654,0.3857,0.3851,0.3846,0.3841,0.3837,0,0.1678,0.1753,0.1986,0.2097,0.2202,0.2377,0.2509,0.2673,0.2799,0.3091,0.3205,0.3456,0.3613,0.3837,0.3733,0.3779,0.3956,0.3518,0.335,0.3702,0.3673,0.3654,0.3635,0.3106,0.3096,0.3089,0.3082,0,0.1671,0.177,0.1882,0.2108,0.2279,0.2426,0.2609,0.2679,0.2891,0.3059,0.3299,0.3447,0.3545,0.3441,0.339,0.3369,0.3481,0.3352,0.3918,0.3145,0.2994,0.2963,0.2971,0.3014,0.3021,0.3026,0.3029,0.3032,0.1669,0.174,0.191,0.2111,0.23,0.2445,0.2536,0.2684,0.2832,0.2993,0.3189,0.3272,0.3212,0.2948,0.288,0.2781,0.2969,0.2906,0.2932,0.2965,0.2784,0.2626,0.2543,0.2547,0.2551,0.2554,0.2557,0,0.1666,0.1758,0.1911,0.2124,0.2279,0.244,0.2597,0.2627,0.2761,0.2828,0.296,0.2636,0.2515,0.2543,0.2213,0.2117,0.2112,0.2137,0.2157,0.2222,0.2281,0.2068,0.1637,0.1635,0.1633,0.1632,0,0,0.168,0.1769,0.1832,0.2046,0.2245,0.2431,0.2528,0.2541,0.2546,0.2457,0.241,0.2418,0.2451,0.2005,0.1892,0.1776,0.2014,0.1708,0.2434,0.2526,0.2584,0.2692,0.243,0,0,0,0,0]},{"header":{"parameterUnit":"m.s-1","parameterCategory":2,"la1":30.2991,"la2":30.254,"lo1":-89.0895,"lo2":-89.0444,"dy":0.0017,"dx":0.0017,"nx":28,"ny":28,"refTime":"2023-08-08T03:00:00:Z","depth":"2","parameterNumber":3,"parameterNumberName":"V-component_of_CURRENTS"},"data":[0,0,0,0,0,0,0,0,0,0,0,0,0,0,0,0,0,0,0,0,0,0,0,0,0,0,0,0,0,0,0,0,0,0,0,0,0,0,0,0,0,0,0,0,0,0,0,0,0,0,0,0,0,0,0,0,0,0,-0.0041,-0.0042,0,-0.0133,-0.0134,-0.0135,-0.0257,-0.0259,-0.0261,-0.0263,-0.0502,-0.0507,-0.0511,0,0,0,0,0,0,0,0,0,0,0,0,0,0.0017,0.0017,-0.0041,-0.0042,-0.0043,-0.0133,-0.0134,-0.0135,-0.0257,-0.0259,-0.0262,-0.0264,-0.0501,-0.0506,-0.0512,0,0,0,0,0,0,0,0,0,0,0,0,0,-0.0035,0.0016,-0.0041,-0.0114,-0.0122,-0.0132,-0.0134,-0.0136,-0.0256,-0.0259,-0.0262,-0.0265,-0.0499,-0.0506,-0.0512,-0.0495,0,0,-0.0533,-0.0536,0,0,0,0,0,0,0,0,-0.0032,-0.0037,-0.0102,-0.0109,-0.0118,-0.0186,-0.0202,-0.0263,-0.0256,-0.0205,-0.0263,-0.0266,-0.0408,-0.0422,-0.0431,-0.0506,-0.0516,-0.0534,-0.0538,-0.0541,-0.0543,0,0,0,0,0,0,0,-0.0028,-0.0034,-0.0078,-0.0103,-0.0113,-0.0147,-0.0158,-0.0213,-0.0292,-0.021,-0.0219,-0.0228,-0.0414,-0.0424,-0.0438,-0.052,-0.0534,-0.054,-0.0544,-0.0546,-0.0643,-0.0642,0,0,0,0,0,0,-0.0012,-0.003,-0.0075,-0.008,-0.0081,-0.0146,-0.0158,-0.0161,-0.0288,-0.0309,-0.0225,-0.0233,-0.0411,-0.043,-0.0447,-0.0431,-0.0541,-0.0547,-0.0551,-0.0644,-0.0643,-0.0641,0,0,0,0,0,0,-0.001,-0.0015,-0.0071,-0.0058,-0.0067,-0.0143,-0.0147,-0.0162,-0.0195,-0.0298,-0.0323,-0.0247,-0.0414,-0.0438,-0.0498,-0.0442,-0.055,-0.0556,-0.0646,-0.0644,-0.0642,-0.0401,0,0,0,0,0,0,-0.0008,-0.0013,-0.0008,-0.0056,-0.0067,-0.006,-0.0144,-0.0161,-0.0195,-0.0207,-0.0324,-0.0348,-0.0419,-0.0487,-0.0505,-0.0453,-0.0562,-0.0648,-0.0645,-0.0643,-0.041,-0.039,-0.0373,0,0,0,0,0,-0.0006,0.0016,-0.0007,-0.0013,-0.0059,-0.0058,-0.0065,-0.0131,-0.0193,-0.0179,-0.0271,-0.0345,-0.0482,-0.0491,-0.0512,-0.0461,-0.0649,-0.0646,-0.0643,-0.0419,-0.0394,-0.0374,0,0,0,0,0,0,0.003,0.0004,-0.0023,-0.0015,-0.0027,-0.0078,-0.0077,-0.0127,-0.0185,-0.0214,-0.0327,-0.0354,-0.0386,-0.0463,-0.047,-0.0485,-0.0578,-0.0578,-0.04,-0.0378,-0.036,-0.0312,-0.0567,0,0,0,0,0,0.0048,0.006,0.003,0.0036,0.0036,-0.0022,-0.0035,-0.0074,-0.0132,-0.0162,-0.0244,-0.0332,-0.038,-0.0413,-0.0477,-0.0481,-0.0542,-0.0467,-0.0448,-0.0431,-0.0409,-0.0443,-0.0424,-0.063,-0.063,-0.063,0,0,0.0055,0.0048,0.0048,0.0046,0.0025,0.0062,-0.0037,-0.0044,-0.0019,-0.0178,-0.0189,-0.0275,-0.0372,-0.0373,-0.0394,-0.0434,-0.0403,-0.0427,-0.0411,-0.0398,-0.0437,-0.0417,-0.0399,-0.0628,-0.0628,-0.0628,0,0,0.0101,0.0083,0.0116,0.0133,0.0124,0.0109,0.011,0.0066,0.0039,0.0028,-0.0078,-0.0124,-0.0214,-0.0248,-0.0282,-0.0202,-0.0309,-0.0237,-0.0093,-0.0125,-0.0107,-0.0093,-0.0128,-0.0118,-0.0219,-0.0219,-0.0218,0,0.0119,0.0153,0.0126,0.0182,0.0209,0.014,0.0198,0.0186,0.0124,0.0125,0.0049,-0.005,-0.0138,-0.0117,-0.0091,-0.0152,-0.0202,-0.016,-0.0095,-0.0082,-0.0071,-0.0112,-0.0104,-0.0207,-0.0208,-0.0209,-0.021,0,0.0197,0.0236,0.0263,0.032,0.0353,0.0388,0.0388,0.0395,0.0345,0.0324,0.0307,0.0195,0.0128,0.0111,0.0034,0.0078,0.0007,-0.0068,-0.0138,-0.0035,-0.0086,-0.0082,-0.0189,-0.0194,-0.0197,-0.02,0,0,0.0228,0.0301,0.0312,0.0366,0.043,0.0461,0.0537,0.0583,0.0621,0.0562,0.0603,0.0526,0.0431,0.0385,0.0279,0.0271,0.0305,0.0148,0.0141,0.014,0.0231,0.0126,0.0118,0.0237,0.0239,0.024,0.0172,0,0.03,0.0395,0.0438,0.0565,0.0625,0.065,0.0733,0.0771,0.0765,0.0791,0.0708,0.0678,0.0545,0.0496,0.0475,0.0348,0.0322,0.033,0.0107,0.0101,0.0018,0.0122,0.009,0.0021,0.0174,0.0175,0.0175,0,0.0383,0.0437,0.0528,0.0683,0.0716,0.0776,0.0894,0.096,0.1009,0.1003,0.0979,0.0889,0.0862,0.071,0.0583,0.0589,0.0424,0.0329,0.0321,0.0143,0.0003,-0.0065,0.002,0.0179,0.0179,0.0179,0.0178,0,0.0388,0.0532,0.0587,0.0635,0.0773,0.0824,0.0899,0.0988,0.1057,0.1099,0.1134,0.1081,0.102,0.0871,0.0638,0.0608,0.0492,0.0411,0.0168,0.0158,0.0046,0.0023,0.0305,0.0305,0.0305,0.0305,0.0305,0,0.0466,0.0539,0.0569,0.0606,0.0712,0.0819,0.0932,0.1009,0.1119,0.1231,0.1188,0.1244,0.1051,0.0948,0.073,0.0473,0.054,0.0223,0.0146,0.0127,0.0113,0.0167,0.0152,0.0303,0.0303,0.0304,0.0304,0,0.0492,0.05,0.0573,0.0664,0.0697,0.0755,0.093,0.1039,0.1131,0.1273,0.1287,0.1349,0.1252,0.1034,0.0806,0.0568,0.0345,0.0206,0.0197,0.0121,0.0015,0.0013,-0.0016,-0.002,-0.0024,-0.0027,-0.0029,0,0.0521,0.0534,0.0558,0.0583,0.0614,0.0715,0.0819,0.0982,0.1128,0.1348,0.1442,0.1409,0.1437,0.1091,0.0668,0.029,0.0281,-0.001,-0.0078,0.0061,-0.0011,-0.0008,-0.0005,-0.0125,-0.0128,-0.013,-0.0132,0,0.059,0.0533,0.0571,0.0574,0.0634,0.0779,0.0943,0.1074,0.1313,0.148,0.1724,0.1769,0.1422,0.1064,0.0501,0.0244,0.0065,-0.0076,0.0093,-0.005,-0.005,-0.0119,-0.011,-0.0153,-0.0151,-0.015,-0.0149,-0.0148,0.0612,0.0614,0.0587,0.0617,0.0693,0.0871,0.1035,0.1278,0.1552,0.1827,0.1849,0.186,0.1396,0.0657,0.0282,-0.0132,-0.0133,-0.0296,-0.0284,-0.027,-0.0282,-0.029,-0.0439,-0.0439,-0.0438,-0.0438,-0.0438,0,0.0665,0.0641,0.0667,0.0712,0.0819,0.0846,0.1162,0.139,0.1754,0.1852,0.1994,0.1524,0.1094,0.0652,-0.0029,-0.0422,-0.04,-0.0474,-0.0378,-0.0359,-0.0342,-0.0351,-0.053,-0.053,-0.053,-0.053,0,0,0.0689,0.0704,0.0704,0.0822,0.0866,0.1103,0.1302,0.1633,0.1805,0.1966,0.1871,0.1607,0.1078,0.0551,0.0071,-0.021,-0.0174,-0.0251,-0.0163,0.0019,0.0044,-0.0255,-0.0252,0,0,0,0,0]}],[{"header":{"parameterUnit":"m.s-1","parameterCategory":2,"la1":30.2991,"la2":30.254,"lo1":-89.0895,"lo2":-89.0444,"dy":0.0017,"dx":0.0017,"nx":28,"ny":28,"refTime":"2023-08-08T03:00:00:Z","depth":"4","parameterNumber":2,"parameterNumberName":"U-component_of_CURRENTS"},"data":[0,0,0,0,0,0,0,0,0,0,0,0,0,0,0,0,0,0,0,0,0,0,0,0,0,0,0,0,0,0,0,0,0,0,0,0,0,0,0,0,0,0,0,0,0,0,0,0,0,0,0,0,0,0,0,0,0,0,0.0438,0.0441,0,0.0602,0.0603,0.0604,0.0756,0.0759,0.0762,0.0764,0.0914,0.0915,0.0917,0,0,0,0,0,0,0,0,0,0,0,0,0,0.0312,0.0312,0.0438,0.0441,0.0443,0.0602,0.0603,0.0605,0.0756,0.0759,0.0762,0.0765,0.0913,0.0915,0.0917,0,0,0,0,0,0,0,0,0,0,0,0,0,0.0403,0.0312,0.0438,0.0543,0.0555,0.0601,0.0603,0.0605,0.0755,0.0759,0.0763,0.0767,0.0913,0.0915,0.0917,0.0856,0,0,0.0925,0.0926,0,0,0,0,0,0,0,0,0.0397,0.0406,0.0525,0.0536,0.055,0.0669,0.0614,0.0691,0.0754,0.0671,0.0764,0.0768,0.0833,0.0842,0.0854,0.0863,0.0869,0.0925,0.0926,0.0927,0.0928,0,0,0,0,0,0,0,0.0391,0.04,0.0495,0.0528,0.0543,0.0602,0.0618,0.0629,0.0722,0.0679,0.0692,0.0721,0.0839,0.0851,0.0859,0.0871,0.0925,0.0927,0.0929,0.0929,0.1028,0.1029,0,0,0,0,0,0,0.0378,0.0393,0.049,0.0501,0.049,0.0602,0.0619,0.0621,0.0723,0.0745,0.0718,0.0728,0.0845,0.0856,0.0864,0.0981,0.0927,0.093,0.0931,0.1027,0.1028,0.1029,0,0,0,0,0,0,0.0374,0.0383,0.0484,0.0459,0.0477,0.06,0.0601,0.0622,0.0707,0.0754,0.0775,0.079,0.0848,0.0861,0.0953,0.0981,0.0931,0.0933,0.1025,0.1027,0.1029,0.1096,0,0,0,0,0,0,0.0369,0.038,0.0387,0.0457,0.0478,0.0562,0.0599,0.0623,0.0718,0.0735,0.0821,0.0835,0.0852,0.095,0.0956,0.0984,0.0935,0.1024,0.1026,0.1028,0.1092,0.11,0.1106,0,0,0,0,0,0.0363,0.0373,0.0385,0.0399,0.0479,0.0564,0.0581,0.0676,0.0719,0.0764,0.0836,0.0836,0.0967,0.0954,0.096,0.0989,0.1023,0.1025,0.1028,0.1089,0.1098,0.1106,0,0,0,0,0,0,0.0342,0.0391,0.0407,0.0435,0.0512,0.0595,0.0642,0.0703,0.079,0.0821,0.0861,0.088,0.0964,0.0964,0.0949,0.1021,0.0989,0.0993,0.1033,0.1042,0.1049,0.106,0.0937,0,0,0,0,0,0.0327,0.0337,0.0411,0.0438,0.0472,0.0558,0.061,0.0683,0.0764,0.0811,0.0868,0.092,0.0961,0.1001,0.103,0.1073,0.1046,0.1092,0.1099,0.1105,0.1118,0.1094,0.1099,0.1038,0.1038,0.1038,0,0,0.0329,0.0357,0.0367,0.0433,0.0489,0.0554,0.06,0.07,0.0767,0.0805,0.0911,0.0951,0.0979,0.1041,0.1075,0.1059,0.1108,0.1108,0.1113,0.1123,0.1097,0.1103,0.1108,0.104,0.1039,0.1039,0,0,0.0337,0.0358,0.0372,0.0435,0.0535,0.0587,0.063,0.0738,0.0803,0.0908,0.094,0.1009,0.1083,0.1103,0.1121,0.1177,0.1144,0.1185,0.1236,0.1213,0.1218,0.1222,0.1191,0.1192,0.119,0.119,0.119,0,0.0348,0.0372,0.0401,0.0448,0.0519,0.0607,0.0682,0.0737,0.0872,0.0915,0.0963,0.1079,0.1107,0.1161,0.1196,0.1193,0.1176,0.1205,0.1222,0.1225,0.1228,0.1195,0.1195,0.1194,0.1193,0.1193,0.1193,0,0.0366,0.0413,0.044,0.0508,0.0579,0.0671,0.0755,0.0827,0.0919,0.098,0.1089,0.1144,0.1222,0.1225,0.1244,0.1276,0.1255,0.1231,0.1199,0.1238,0.1201,0.12,0.1199,0.1198,0.1197,0.1196,0,0,0.0355,0.0434,0.0457,0.0497,0.0639,0.0692,0.0789,0.0893,0.0951,0.1072,0.1152,0.124,0.1292,0.1315,0.1334,0.1322,0.1329,0.1304,0.1301,0.1273,0.1281,0.1208,0.1198,0.1313,0.1313,0.1313,0.1245,0,0.0389,0.0457,0.0511,0.0618,0.0674,0.0776,0.0854,0.0952,0.1042,0.1121,0.119,0.1296,0.1316,0.1392,0.1378,0.1352,0.133,0.135,0.1249,0.1246,0.1175,0.1196,0.1314,0.1244,0.1244,0.1243,0.1243,0,0.0418,0.0458,0.0558,0.0663,0.07,0.08,0.0932,0.1016,0.1121,0.1203,0.1309,0.1364,0.1433,0.1429,0.1407,0.1427,0.1371,0.1324,0.132,0.1229,0.1171,0.1198,0.124,0.124,0.124,0.124,0.124,0,0.0385,0.0504,0.0578,0.0627,0.0753,0.0846,0.095,0.1072,0.1147,0.1295,0.1377,0.1438,0.1524,0.1468,0.1409,0.1431,0.1312,0.1321,0.1187,0.1181,0.1236,0.1233,0.1264,0.1264,0.1265,0.1265,0.1265,0,0.0409,0.0469,0.0587,0.0626,0.0751,0.0862,0.1018,0.1107,0.1253,0.1318,0.1454,0.1479,0.1543,0.1483,0.1402,0.1284,0.1313,0.1201,0.1161,0.1265,0.1266,0.1234,0.1232,0.1262,0.1263,0.1263,0.1264,0,0.0382,0.0449,0.0522,0.0666,0.0745,0.0848,0.1094,0.1168,0.1336,0.1426,0.1502,0.1557,0.1505,0.1469,0.1356,0.1296,0.1166,0.1093,0.1193,0.1158,0.106,0.1062,0.1002,0.0999,0.0997,0.0994,0.0993,0,0.0369,0.0408,0.0543,0.0616,0.0721,0.0911,0.1036,0.1225,0.1271,0.1405,0.1384,0.1438,0.1443,0.1226,0.1187,0.1059,0.1022,0.0999,0.1069,0.1068,0.1035,0.1041,0.1046,0.0988,0.0988,0.0987,0.0986,0,0.0345,0.0399,0.0449,0.0598,0.0746,0.0878,0.1046,0.1059,0.1212,0.1368,0.1302,0.13,0.1215,0.1131,0.1058,0.0935,0.1059,0.0972,0.0979,0.1045,0.105,0.1022,0.103,0.0977,0.0979,0.0979,0.098,0,0.0332,0.0358,0.0437,0.0559,0.0722,0.0791,0.0889,0.0949,0.1029,0.1146,0.1075,0.1097,0.1151,0.1052,0.0918,0.0878,0.0894,0.0907,0.0918,0.0928,0.0935,0.0933,0.079,0,0,0,0,0,0.0328,0.0332,0.0408,0.0505,0.0653,0.0743,0.0854,0.0917,0.1014,0.0954,0.1038,0.095,0.091,0.0863,0.0803,0.0848,0.086,0.0778,0.0872,0.0927,0.0938,0.0954,0,0,0,0,0,0,0.0317,0.0373,0.036,0.0444,0.0505,0.0649,0.07,0.0756,0.0702,0.081,0.0746,0.0924,0.0822,0.0929,0.079,0.079,0.084,0.0809,0.0807,0.0921,0.0931,0.0939,0.096,0,0,0,0,0]},{"header":{"parameterUnit":"m.s-1","parameterCategory":2,"la1":30.2991,"la2":30.254,"lo1":-89.0895,"lo2":-89.0444,"dy":0.0017,"dx":0.0017,"nx":28,"ny":28,"refTime":"2023-08-08T03:00:00:Z","depth":"4","parameterNumber":3,"parameterNumberName":"V-component_of_CURRENTS"},"data":[0,0,0,0,0,0,0,0,0,0,0,0,0,0,0,0,0,0,0,0,0,0,0,0,0,0,0,0,0,0,0,0,0,0,0,0,0,0,0,0,0,0,0,0,0,0,0,0,0,0,0,0,0,0,0,0,0,0,0.02,0.02,0,0.0148,0.0147,0.0146,0.0111,0.0111,0.0111,0.0111,-0.0075,-0.008,-0.0085,0,0,0,0,0,0,0,0,0,0,0,0,0,0.021,0.021,0.02,0.02,0.0199,0.0148,0.0147,0.0146,0.0111,0.0111,0.0111,0.0111,-0.0074,-0.008,-0.0086,0,0,0,0,0,0,0,0,0,0,0,0,0,0.0183,0.021,0.02,0.0179,0.0177,0.0148,0.0147,0.0146,0.0111,0.0111,0.0111,0.0112,-0.0072,-0.0079,-0.0087,-0.0138,0,0,-0.011,-0.0113,0,0,0,0,0,0,0,0,0.0184,0.0182,0.0182,0.018,0.0178,0.014,0.0082,0.0045,0.0111,0.0131,0.0111,0.0112,-0.0013,-0.0026,-0.004,-0.0147,-0.0155,-0.0111,-0.0115,-0.0119,-0.0121,0,0,0,0,0,0,0,0.0186,0.0183,0.0175,0.0182,0.018,0.0152,0.0149,0.0075,0.0053,0.013,0.0128,0.0129,-0.0016,-0.0032,-0.0045,-0.0158,-0.011,-0.0117,-0.0122,-0.0125,-0.0369,-0.0371,0,0,0,0,0,0,0.0204,0.0186,0.0177,0.0174,0.0187,0.0153,0.0148,0.0148,0.0056,0.0045,0.0129,0.0128,-0.002,-0.0036,-0.0052,-0.0168,-0.0119,-0.0126,-0.013,-0.0367,-0.037,-0.0372,0,0,0,0,0,0,0.0205,0.0204,0.0179,0.0182,0.0177,0.0153,0.0153,0.0147,0.0125,0.0058,0.0043,0.0113,-0.002,-0.0041,-0.0134,-0.0173,-0.0129,-0.0136,-0.0365,-0.0368,-0.0371,-0.0368,0,0,0,0,0,0,0.0205,0.0204,0.0207,0.0183,0.0178,0.0154,0.0153,0.0146,0.0128,0.0126,0.0039,0.0023,-0.0021,-0.0123,-0.0142,-0.0183,-0.0142,-0.0363,-0.0367,-0.037,-0.0366,-0.0371,-0.0375,0,0,0,0,0,0.0205,0.021,0.0207,0.0206,0.0184,0.0154,0.0148,0.0128,0.0127,0.011,0.0047,0.0025,-0.0159,-0.0131,-0.0153,-0.0197,-0.0361,-0.0365,-0.037,-0.0364,-0.037,-0.0375,0,0,0,0,0,0,0.0216,0.0207,0.0203,0.0205,0.0179,0.015,0.0141,0.0125,0.0066,0.0059,-0.0004,-0.0027,-0.0125,-0.0161,-0.0128,-0.0278,-0.0262,-0.0271,-0.0251,-0.0257,-0.0261,-0.0249,-0.0149,0,0,0,0,0,0.0222,0.0222,0.0202,0.0201,0.0192,0.0164,0.0151,0.0133,0.0085,0.0061,-0.0004,-0.0079,-0.016,-0.0205,-0.028,-0.0363,-0.0374,-0.0405,-0.0409,-0.0413,-0.0419,-0.0475,-0.0484,-0.0386,-0.0386,-0.0386,0,0,0.0229,0.0222,0.0224,0.0203,0.0185,0.0158,0.0155,0.0132,0.0099,0.0045,-0.0033,-0.0103,-0.0186,-0.0281,-0.0327,-0.0316,-0.0441,-0.0418,-0.042,-0.0425,-0.0481,-0.049,-0.0498,-0.0389,-0.0388,-0.0388,0,0,0.0231,0.0234,0.0227,0.0206,0.0179,0.0156,0.0149,0.0104,0.0075,-0.0007,-0.0056,-0.0145,-0.0264,-0.033,-0.0378,-0.0453,-0.0465,-0.048,-0.0494,-0.0548,-0.0556,-0.0564,-0.0556,-0.0563,-0.0479,-0.0479,-0.0479,0,0.0239,0.023,0.0218,0.0198,0.018,0.0154,0.0128,0.0093,0.0017,-0.0018,-0.0035,-0.0221,-0.0289,-0.0402,-0.0432,-0.0464,-0.0474,-0.0463,-0.0552,-0.0559,-0.0567,-0.0558,-0.0566,-0.0479,-0.0479,-0.0479,-0.0479,0,0.0223,0.0218,0.0212,0.0178,0.0149,0.0128,0.0081,0.0038,-0.0004,-0.0047,-0.0167,-0.0266,-0.0371,-0.0413,-0.0453,-0.055,-0.0531,-0.0549,-0.0529,-0.0576,-0.0564,-0.0572,-0.0479,-0.0479,-0.0479,-0.0479,0,0,0.0252,0.0209,0.0215,0.0191,0.0139,0.0114,0.0056,-0.0006,-0.0041,-0.0135,-0.0203,-0.0353,-0.0396,-0.0454,-0.0517,-0.0574,-0.0629,-0.0585,-0.0588,-0.0561,-0.0708,-0.0651,-0.0653,-0.0664,-0.0667,-0.0669,-0.0664,0,0.0246,0.022,0.0189,0.0148,0.0126,0.0077,0.0027,-0.0035,-0.0097,-0.017,-0.0269,-0.0362,-0.0412,-0.0468,-0.0538,-0.0627,-0.0656,-0.0626,-0.0682,-0.0683,-0.0614,-0.0664,-0.0676,-0.067,-0.0671,-0.0673,-0.0673,0,0.025,0.0227,0.02,0.0135,0.0121,0.0093,0.0015,-0.0038,-0.0133,-0.0186,-0.0287,-0.0361,-0.0485,-0.0504,-0.0653,-0.0632,-0.0666,-0.0712,-0.0713,-0.0671,-0.0643,-0.0626,-0.0687,-0.0686,-0.0685,-0.0684,-0.0683,0,0.0286,0.0238,0.022,0.0201,0.0123,0.01,0.0056,-0.0031,-0.0065,-0.0183,-0.0223,-0.0378,-0.0449,-0.0551,-0.0643,-0.0661,-0.0762,-0.0795,-0.0758,-0.0751,-0.0799,-0.0792,-0.0863,-0.0863,-0.0863,-0.0863,-0.0863,0,0.0295,0.0284,0.0249,0.0236,0.0214,0.0138,0.0111,0.0039,-0.0038,-0.0079,-0.0215,-0.0283,-0.0469,-0.0548,-0.0632,-0.0707,-0.0747,-0.0766,-0.0764,-0.0793,-0.0786,-0.0802,-0.0795,-0.0863,-0.0863,-0.0863,-0.0863,0,0.0337,0.0317,0.0295,0.024,0.0238,0.0222,0.0185,0.0157,0.007,0.0013,-0.0023,-0.021,-0.0349,-0.0467,-0.0624,-0.0672,-0.0756,-0.0747,-0.0717,-0.0712,-0.0709,-0.0702,-0.0753,-0.0751,-0.075,-0.0749,-0.0748,0,0.0338,0.0346,0.0333,0.0348,0.0336,0.0325,0.0324,0.0234,0.0192,0.0059,0.0017,-0.0122,-0.0242,-0.0402,-0.0555,-0.0677,-0.0686,-0.0698,-0.0774,-0.0714,-0.0706,-0.0702,-0.0697,-0.0746,-0.0745,-0.0745,-0.0745,0,0.034,0.0367,0.0355,0.0417,0.0432,0.0425,0.0398,0.0365,0.0246,0.0208,0.0063,-0.0062,-0.0202,-0.0393,-0.0454,-0.0553,-0.0703,-0.0685,-0.0691,-0.0762,-0.0705,-0.0698,-0.0695,-0.074,-0.074,-0.0741,-0.0741,0,0.0353,0.0371,0.0408,0.0444,0.0516,0.0497,0.0447,0.0378,0.0323,0.0162,0.013,-0.0046,-0.0154,-0.0324,-0.0399,-0.0481,-0.0538,-0.0565,-0.0578,-0.0585,-0.0552,-0.0457,-0.0419,0,0,0,0,0,0.0366,0.0396,0.0432,0.0447,0.0537,0.0581,0.0501,0.0422,0.0324,0.025,0.0185,0.0059,-0.0125,-0.0247,-0.0321,-0.0403,-0.0559,-0.0493,-0.0598,-0.0713,-0.0719,-0.0706,0,0,0,0,0,0,0.0371,0.0424,0.0425,0.049,0.0549,0.0593,0.0564,0.045,0.0366,0.0274,0.0159,0.0119,-0.0083,-0.0021,-0.0276,-0.0314,-0.0383,-0.058,-0.0581,-0.071,-0.0715,-0.0719,-0.0709,0,0,0,0,0]}]]